Skip Page Navigation
NASA JPL Caltech
NASA Logo - Jet Propulsion Laboratory + View the NASA Portal
+ Center for Near-Earth Object Studies
JPL Home Earth Solar System Stars & Galaxies Technology
JPL Solar System Dynamics
BODIES ORBITS EPHEMERIDES TOOLS PHYSICAL DATA DISCOVERY FAQ SITE MAP
JPL Small-Body Database Browser
Search: [ help ]  
452085 (2014 PG19)
Classification: Main-belt Asteroid          SPK-ID: 2452085
Ephemeris | Orbit Diagram | Orbital Elements | Mission Design | Physical Parameters | Discovery Circumstances | Close-Approach Data ]

[ show orbit diagram ]
Orbital Elements at Epoch 2459000.5 (2020-May-31.0) TDB
Reference: JPL 10 (heliocentric ecliptic J2000)
 Element Value Uncertainty (1-sigma)   Units 
e .09918678035425685 8.7591e-08  
a 3.195816375665336 8.4221e-08 au
q 2.878833638759681 2.8383e-07 au
i 10.1221458148631 9.1557e-06 deg
node 120.536881120241 4.2773e-05 deg
peri 186.6210151662592 5.9077e-05 deg
M 21.58988526910343 3.8866e-05 deg
tp 2458875.353419564928
(2020-Jan-26.85341957)
0.00022433 TDB
period 2086.75351420693
5.71
8.249e-05
2.258e-07
d
yr
n .1725167814737419 6.8196e-09 deg/d
Q 3.512799112570991 9.2574e-08 au
  Orbit Determination Parameters
   # obs. used (total)      60  
   data-arc span      4912 days (13.45 yr)  
   first obs. used      2006-01-23  
   last obs. used      2019-07-06  
   planetary ephem.      DE431  
   SB-pert. ephem.      SB431-N16  
   condition code      0  
   norm. resid. RMS      .68564  
   source      ORB  
   producer      Otto Matic  
   solution date      2019-Sep-24 07:56:08  

Additional Information
 Earth MOID = 1.86411 au 
 Jupiter MOID = 1.73101 au 
 T_jup = 3.164 
[ show covariance matrix ]

Ephemeris | Orbit Diagram | Orbital Elements | Mission Design | Physical Parameters | Discovery Circumstances | Close-Approach Data ]

Physical Parameter Table
Parameter Symbol Value Units Sigma Reference Notes
absolute magnitude H 16.4   n/a MPO477162  

452085 (2014 PG19)          Discovered 2006-Jan-23 by Spacewatch at Kitt Peak
Reference: Last Updated: 2015-11-30

[ show close-approach data ]
Alternate Designations
 2014 PG19 = 2006 BQ202 
Ephemeris | Orbit Diagram | Orbital Elements | Mission Design | Physical Parameters | Discovery Circumstances | Close-Approach Data ]
ABOUT SSD CREDITS/AWARDS PRIVACY/COPYRIGHT GLOSSARY LINKS
FirstGov 2020-Aug-03 12:38 UT
(server date/time)  
NASA Home Page
Site Manager:   Ryan S. Park
Webmaster  Alan B. Chamberlin